Emerald Leader — C6WP4 — position and weather

sailwx.info

Track history (hours):
 
Tides and Currents Weather Stations Pressure Air Temp Water Temp Dewpoint Dewpoint Depression Visibility Wind Speed Wind Dir Waves Ship Positions

Emerald Leader

Last reported at 2014-Aug-29 07:33 UTC. Time now 2014-Aug-30 16:33 UTC.
Position N 37°12' W 009°26'.

Length 176 m; draft 7.5 m.

Type: Cargo ship. MMSI: 308688000.

Date/timePositionNaut miles runAvg speedWind from/ knotsBaromVisibWave heightAir tempDewpointWater temp
2014-Aug-29 07:33N 37°12' W 009°26'1818.2
2014-Aug-29 06:33N 36°55' W 009°20'1515.4
2014-Aug-29 05:33N 36°44' W 009°07'1514.8
2014-Aug-29 04:33N 36°40' W 008°49'1515.0
2014-Aug-29 03:33N 36°35' W 008°31'1515.1
2014-Aug-29 02:33N 36°30' W 008°14'1514.9
2014-Aug-29 01:33N 36°26' W 007°56'1514.8
2014-Aug-29 00:33N 36°21' W 007°38'1514.6
2014-Aug-28 23:33N 36°16' W 007°21'25714.3
2014-Aug-28 05:33N 36°32' W 002°02'6616.6
2014-Aug-28 01:33N 37°16' W 001°00'1616.4
2014-Aug-28 00:33N 37°26' W 000°44'1616.4
2014-Aug-27 23:33N 37°38' W 000°30'2116.6
2014-Aug-27 22:19N 37°55' W 000°16'2916.4
2014-Aug-27 20:33N 38°19' E 000°04'3115.2
2014-Aug-27 18:29N 38°47' E 000°22'4816.0
2014-Aug-27 15:30N 39°30' W 000°07'10 2.0
2014-Aug-27 10:26N 39°38' W 000°13'0 0.0
2014-Aug-27 09:33N 39°38' W 000°13'5010.1
2014-Aug-27 04:33N 39°26' E 000°50'1515.0
2014-Aug-27 03:34N 39°23' E 001°09'1514.7
2014-Aug-27 02:34N 39°20' E 001°28'1515.1
2014-Aug-27 01:34N 39°16' E 001°46'1515.2
2014-Aug-27 00:34N 39°10' E 002°05'1515.3
2014-Aug-26 23:33N 39°05' E 002°23'1515.0
2014-Aug-26 22:33N 38°59' E 002°41'1515.2
2014-Aug-26 21:34N 38°54' E 002°59'1515.0
2014-Aug-26 20:34N 38°51' E 003°18'1515.1
2014-Aug-26 19:33N 38°48' E 003°37'1515.0
2014-Aug-26 18:33N 38°44' E 003°56'1515.3
2014-Aug-26 17:33N 38°41' E 004°15'1714.4
2014-Aug-26 16:21N 38°37' E 004°37'1214.8
2014-Aug-26 15:30N 38°34' E 004°52'1415.1
2014-Aug-26 14:34N 38°31' E 005°10'5015.1
2014-Aug-26 11:15N 38°20' E 006°12'1115.4
2014-Aug-26 10:32N 38°17' E 006°26'3514.9
2014-Aug-26 08:10N 38°10' E 007°10'1015.4
2014-Aug-26 07:31N 38°07' E 007°22'1515.5
2014-Aug-26 06:33N 38°04' E 007°41'1515.4
2014-Aug-26 05:33N 38°01' E 007°60'1515.2
2014-Aug-26 04:34N 37°57' E 008°18'1515.4
2014-Aug-26 03:34N 37°54' E 008°38'1514.8
2014-Aug-26 02:33N 37°51' E 008°56'1514.7
2014-Aug-26 01:34N 37°47' E 009°14'1514.7
2014-Aug-26 00:34N 37°45' E 009°32'1414.3
2014-Aug-25 23:33N 37°41' E 009°50'1414.5
2014-Aug-25 22:34N 37°39' E 010°08'1514.8
2014-Aug-25 21:34N 37°38' E 010°27'1514.6
2014-Aug-25 20:34N 37°33' E 010°44'1515.0
2014-Aug-25 19:33N 37°30' E 011°03'5215.4
2014-Aug-25 16:11N 37°05' E 011°60'2515.2
2014-Aug-25 14:33N 36°58' E 012°29'1514.8
2014-Aug-25 13:34N 36°53' E 012°47'1514.7
2014-Aug-25 12:34N 36°49' E 013°05'1514.6
2014-Aug-25 11:34N 36°44' E 013°22'1514.9
2014-Aug-25 10:34N 36°40' E 013°40'1515.1
2014-Aug-25 09:34N 36°36' E 013°58'1515.0
2014-Aug-25 08:33N 36°31' E 014°16'39615.8
2014-Aug-24 07:33N 36°19' E 022°27'3215.7
2014-Aug-24 05:33N 36°24' E 023°06'1413.9
2014-Aug-24 04:33N 36°30' E 023°21'1716.7
2014-Aug-24 03:33N 36°45' E 023°31'1717.0
2014-Aug-24 02:33N 36°59' E 023°42'1817.5
2014-Aug-24 01:32N 37°15' E 023°53'1616.0
2014-Aug-24 00:33N 37°28' E 024°04'2315.7
2014-Aug-23 23:06N 37°47' E 024°20'1315.8
2014-Aug-23 22:18N 37°54' E 024°33'2816.3
2014-Aug-23 20:33N 38°19' E 024°50'23113.3
2014-Aug-23 03:16N 40°26' E 028°60'4 0.9
2014-Aug-22 22:32N 40°25' E 029°05'18 9.0
2014-Aug-22 20:33N 40°33' E 028°44'1616.4
2014-Aug-22 19:33N 40°41' E 029°02'1515.3
2014-Aug-22 18:33N 40°45' E 029°22'1512.3
2014-Aug-22 17:22N 40°45' E 029°41'  
2014-Aug-20 01:31N 40°44' E 029°27'1110.9
2014-Aug-20 00:33N 40°43' E 029°13'3 2.9
2014-Aug-19 23:34N 40°44' E 029°09'1 0.6
2014-Aug-19 22:33N 40°43' E 029°09'1 0.5
2014-Aug-19 21:33N 40°43' E 029°10'0 0.3
2014-Aug-19 20:33N 40°43' E 029°10'1110.8
2014-Aug-19 19:32N 40°42' E 028°56'  
Track history (hours):
 
Tides and Currents Weather Stations Pressure Air Temp Water Temp Dewpoint Dewpoint Depression Visibility Wind Speed Wind Dir Waves Ship Positions

Emerald Leader

Last reported at 2014-Aug-29 07:33 UTC. Time now 2014-Aug-30 16:33 UTC.
Position N 37°12' W 009°26'.

Length 176 m; draft 7.5 m.

Type: Cargo ship. MMSI: 308688000.

Date/timePositionNaut miles runAvg speedWind from/ knotsBaromVisibWave heightAir tempDewpointWater temp
2014-Aug-29 07:33N 37°12' W 009°26'1818.2
2014-Aug-29 06:33N 36°55' W 009°20'1515.4
2014-Aug-29 05:33N 36°44' W 009°07'1514.8
2014-Aug-29 04:33N 36°40' W 008°49'1515.0
2014-Aug-29 03:33N 36°35' W 008°31'1515.1
2014-Aug-29 02:33N 36°30' W 008°14'1514.9
2014-Aug-29 01:33N 36°26' W 007°56'1514.8
2014-Aug-29 00:33N 36°21' W 007°38'1514.6
2014-Aug-28 23:33N 36°16' W 007°21'25714.3
2014-Aug-28 05:33N 36°32' W 002°02'6616.6
2014-Aug-28 01:33N 37°16' W 001°00'1616.4
2014-Aug-28 00:33N 37°26' W 000°44'1616.4
2014-Aug-27 23:33N 37°38' W 000°30'2116.6
2014-Aug-27 22:19N 37°55' W 000°16'2916.4
2014-Aug-27 20:33N 38°19' E 000°04'3115.2
2014-Aug-27 18:29N 38°47' E 000°22'4816.0
2014-Aug-27 15:30N 39°30' W 000°07'10 2.0
2014-Aug-27 10:26N 39°38' W 000°13'0 0.0
2014-Aug-27 09:33N 39°38' W 000°13'5010.1
2014-Aug-27 04:33N 39°26' E 000°50'1515.0
2014-Aug-27 03:34N 39°23' E 001°09'1514.7
2014-Aug-27 02:34N 39°20' E 001°28'1515.1
2014-Aug-27 01:34N 39°16' E 001°46'1515.2
2014-Aug-27 00:34N 39°10' E 002°05'1515.3
2014-Aug-26 23:33N 39°05' E 002°23'1515.0
2014-Aug-26 22:33N 38°59' E 002°41'1515.2
2014-Aug-26 21:34N 38°54' E 002°59'1515.0
2014-Aug-26 20:34N 38°51' E 003°18'1515.1
2014-Aug-26 19:33N 38°48' E 003°37'1515.0
2014-Aug-26 18:33N 38°44' E 003°56'1515.3
2014-Aug-26 17:33N 38°41' E 004°15'1714.4
2014-Aug-26 16:21N 38°37' E 004°37'1214.8
2014-Aug-26 15:30N 38°34' E 004°52'1415.1
2014-Aug-26 14:34N 38°31' E 005°10'5015.1
2014-Aug-26 11:15N 38°20' E 006°12'1115.4
2014-Aug-26 10:32N 38°17' E 006°26'3514.9
2014-Aug-26 08:10N 38°10' E 007°10'1015.4
2014-Aug-26 07:31N 38°07' E 007°22'1515.5
2014-Aug-26 06:33N 38°04' E 007°41'1515.4
2014-Aug-26 05:33N 38°01' E 007°60'1515.2
2014-Aug-26 04:34N 37°57' E 008°18'1515.4
2014-Aug-26 03:34N 37°54' E 008°38'1514.8
2014-Aug-26 02:33N 37°51' E 008°56'1514.7
2014-Aug-26 01:34N 37°47' E 009°14'1514.7
2014-Aug-26 00:34N 37°45' E 009°32'1414.3
2014-Aug-25 23:33N 37°41' E 009°50'1414.5
2014-Aug-25 22:34N 37°39' E 010°08'1514.8
2014-Aug-25 21:34N 37°38' E 010°27'1514.6
2014-Aug-25 20:34N 37°33' E 010°44'1515.0
2014-Aug-25 19:33N 37°30' E 011°03'5215.4
2014-Aug-25 16:11N 37°05' E 011°60'2515.2
2014-Aug-25 14:33N 36°58' E 012°29'1514.8
2014-Aug-25 13:34N 36°53' E 012°47'1514.7
2014-Aug-25 12:34N 36°49' E 013°05'1514.6
2014-Aug-25 11:34N 36°44' E 013°22'1514.9
2014-Aug-25 10:34N 36°40' E 013°40'1515.1
2014-Aug-25 09:34N 36°36' E 013°58'1515.0
2014-Aug-25 08:33N 36°31' E 014°16'39615.8
2014-Aug-24 07:33N 36°19' E 022°27'3215.7
2014-Aug-24 05:33N 36°24' E 023°06'1413.9
2014-Aug-24 04:33N 36°30' E 023°21'1716.7
2014-Aug-24 03:33N 36°45' E 023°31'1717.0
2014-Aug-24 02:33N 36°59' E 023°42'1817.5
2014-Aug-24 01:32N 37°15' E 023°53'1616.0
2014-Aug-24 00:33N 37°28' E 024°04'2315.7
2014-Aug-23 23:06N 37°47' E 024°20'1315.8
2014-Aug-23 22:18N 37°54' E 024°33'2816.3
2014-Aug-23 20:33N 38°19' E 024°50'23113.3
2014-Aug-23 03:16N 40°26' E 028°60'4 0.9
2014-Aug-22 22:32N 40°25' E 029°05'18 9.0
2014-Aug-22 20:33N 40°33' E 028°44'1616.4
2014-Aug-22 19:33N 40°41' E 029°02'1515.3
2014-Aug-22 18:33N 40°45' E 029°22'1512.3
2014-Aug-22 17:22N 40°45' E 029°41'  
2014-Aug-20 01:31N 40°44' E 029°27'1110.9
2014-Aug-20 00:33N 40°43' E 029°13'3 2.9
2014-Aug-19 23:34N 40°44' E 029°09'1 0.6
2014-Aug-19 22:33N 40°43' E 029°09'1 0.5
2014-Aug-19 21:33N 40°43' E 029°10'0 0.3
2014-Aug-19 20:33N 40°43' E 029°10'1110.8
2014-Aug-19 19:32N 40°42' E 028°56'  

Dump ship's entire track history